Location: Cazarilh
(42.9578°N, 0.5819°E)
Time: 22:34:27
(UTC+00:00)

Okean O Rocket - Pass Details

Date: 11 December 2019
Orbit: 624 x 644 km, 98.2° (Epoch: 22 January)

Event Time Altitude Azimuth Distance (km) Brightness Sun altitude
Rises 06:15:40 0° 4° (N) 2,931 4.9 -11.1°
Reaches altitude 10° 06:17:59 10° 356° (N) 2,021 4.0 -10.7°
Maximum altitude 06:22:01 36° 290° (WNW) 1,004 2.1 -10.0°
Drops below altitude 10° 06:26:02 10° 224° (SW) 2,019 4.0 -9.4°
Sets 06:28:21 0° 216° (SW) 2,926 4.9 -9.0°
